GW0327 Weather Reports


time (UTC)temp
F
wind
direction
speed
knots
gust
knots
rain 1hr
in
rain 24hr
in
rain mn
in
humidity
%
barometer
mb
20260506234527 47 5 4.3 7.8 0.06 2.54 0.10 91 1011.5
20260506233036 47 20 3.5 7.0 0.05 2.52 0.08 90 1011.5
20260506231531 47 309 7.0 10.4 0.06 2.50 0.07 91 1011.4
20260506230026 47 355 4.3 10.4 0.06 2.50 0.06 91 1011.3
20260506224535 46 10 6.1 9.6 0.06 2.65 0.04 91 1011.4
20260506223033 46 30 5.2 8.7 0.06 2.64 0.03 92 1011.4
20260506221525 46 355 5.2 8.7 0.06 2.62 0.01 92 1011.4
20260506220037 45 355 5.2 8.7 0.06 2.61 0.00 92 1011.3
20260506214532 46 349 3.5 5.2 0.07 3.04 2.59 91 1011.4
20260506213024 46 329 3.5 8.7 0.07 3.03 2.58 91 1011.3
20260506211537 46 24 7.0 10.4 0.08 3.01 2.56 91 1011.3
20260506210046 46 30 4.3 7.0 0.09 3.00 2.54 91 1011.4
20260506204522 46 34 2.6 7.0 0.08 3.02 2.52 91 1011.4
20260506203019 46 27 8.7 10.4 0.09 3.01 2.50 89 1011.0
20260506201535 47 24 7.8 13.0 0.08 2.98 2.48 89 1011.3
20260506200028 47 63 6.1 17.4 0.08 2.96 2.46 91 1011.0
20260506194522 47 28 2.6 13.0 0.08 2.95 2.44 93 1010.9
20260506193041 47 9 1.7 10.4 0.08 2.93 2.42 94 1010.8
20260506191528 46 220 3.5 7.8 0.08 2.91 2.40 93 1010.8
20260506190038 45 360 1.7 5.2 0.08 2.89 2.38 93 1010.1
20260506184537 45 350 1.7 4.3 0.08 2.89 2.36 93 1010.0
20260506183027 45 350 4.3 7.8 0.09 2.87 2.34 93 1009.8
20260506181531 46 355 3.5 7.0 0.12 2.85 2.31 92 1009.6
20260506180036 46 12 4.3 7.0 0.21 2.83 2.29 92 1009.4
20260506174533 46 341 4.3 8.7 0.25 2.81 2.27 92 1009.3
20260506173020 47 73 1.7 9.6 0.25 2.78 2.25 93 1009.3
20260506171535 46 45 4.3 9.6 0.25 2.72 2.19 93 1009.2
20260506170029 46 15 3.5 7.8 0.27 2.62 2.09 92 1009.1
20260506164551 46 18 0.9 5.2 0.46 2.57 2.02 92 1008.7
20260506163037 46 360 0.0 5.2 1.00 2.54 2.00 91 1008.3
20260506161528 47 227 3.5 13.0 1.33 2.48 1.94 90 1007.9
20260506160022 46 18 6.1 13.0 1.28 2.36 1.82 90 1008.2
20260506154539 47 325 4.3 13.9 1.04 2.13 1.57 86 1008.2
20260506153026 52 325 3.5 18.2 0.46 1.55 0.99 85 1007.4
20260506151520 56 96 7.0 16.5 0.08 1.17 0.61 83 1007.0
20260506150035 57 72 4.3 10.4 0.01 1.10 0.54 81 1007.0
20260506144527 58 285 0.0 2.6 0.00 1.15 0.53 83 1007.4
20260506143025 58 360 3.5 8.7 0.00 1.15 0.53 82 1007.4
20260506141542 58 120 5.2 14.8 0.00 1.15 0.53 80 1007.5
20260506140029 58 123 1.7 6.1 0.00 1.15 0.53 80 1008.0
20260506134522 60 267 1.7 7.0 0.00 1.18 0.53 82 1008.3
20260506133046 58 207 5.2 7.8 0.00 1.18 0.53 84 1008.5
20260506131526 58 153 2.6 7.0 0.00 1.18 0.53 86 1008.6
20260506130020 58 106 2.6 6.1 0.00 1.18 0.53 84 1008.7
20260506124531 57 178 0.9 10.4 0.00 1.20 0.53 91 1008.7
20260506123027 56 86 2.6 7.0 0.00 1.20 0.53 88 1008.5
20260506121519 56 131 2.6 8.7 0.00 1.20 0.53 89 1008.6
20260506120050 57 360 0.9 7.0 0.00 1.20 0.53 89 1008.6
20260506114532 57 246 0.9 4.3 0.00 1.22 0.53 85 1008.6
20260506113020 56 105 0.9 4.3 0.00 1.22 0.53 90 1008.9
20260506111531 56 360 1.7 4.3 0.00 1.22 0.53 90 1009.0
20260506110029 56 360 0.0 2.6 0.00 1.22 0.53 88 1009.0
20260506104534 56 360 0.9 3.5 0.00 1.22 0.53 92 1009.3
20260506103043 56 182 0.9 3.5 0.00 1.22 0.53 92 1009.3
20260506101527 56 199 1.7 4.3 0.04 1.22 0.53 89 1009.2
20260506100022 54 308 0.9 6.1 0.07 1.22 0.53 93 1009.4
20260506094534 52 360 0.9 5.2 0.15 1.22 0.53 92 1009.3
20260506093027 52 10 0.9 3.5 0.16 1.22 0.53 92 1009.3
20260506091521 52 66 7.0 12.2 0.12 1.18 0.49 92 1009.0
20260506090031 52 79 3.5 7.8 0.09 1.14 0.46 93 1009.0
20260506084606 53 207 0.0 2.6 0.03 1.13 0.38 93 1008.9
20260506083023 53 148 0.0 1.7 0.02 1.12 0.37 93 1008.7
20260506081547 52 146 0.0 1.7 0.03 1.12 0.37 93 1008.7
20260506073033 53 92 0.0 0.0 0.05 1.25 0.35 93 1009.1
20260506071526 53 94 0.9 2.6 0.04 1.24 0.34 93 1009.2
20260506061521 53 45 0.0 0.0 0.03 1.21 0.30 93 1009.5
20260506044536 52 15 2.6 8.7 0.03 1.14 0.24 94 1009.7
20260506043143 52 47 3.5 7.8 0.00 1.12 0.21 94 1009.8
20260506041522 52 44 1.7 3.5 0.00 1.12 0.21 94 1009.8
20260506040035 52 45 0.0 1.7 0.00 1.12 0.21 94 1009.7
20260506034523 52 43 0.9 2.6 0.00 1.12 0.21 95 1009.6
20260506033035 52 44 0.9 3.5 0.01 1.12 0.21 95 1009.7
20260506031538 52 33 0.9 2.6 0.01 1.12 0.21 95 1009.9
20260506030021 52 65 1.7 3.5 0.01 1.12 0.21 95 1010.2
20260506024537 52 55 0.0 1.7 0.01 1.12 0.21 95 1010.4
20260506023048 52 52 0.0 2.6 0.00 1.11 0.20 95 1010.6
20260506021547 52 44 1.7 4.3 0.00 1.11 0.20 95 1010.8
20260506020040 52 108 0.0 3.5 0.00 1.11 0.20 95 1010.9
20260506014533 52 50 0.0 1.7 0.00 1.11 0.20 95 1010.8
20260506013033 52 71 1.7 2.6 0.00 1.11 0.20 95 1010.8
20260506011541 52 101 0.0 7.0 0.00 1.11 0.20 95 1011.0
20260506010035 52 57 0.9 3.5 0.00 1.11 0.20 95 1011.0
20260506004527 52 119 2.6 9.6 0.00 1.11 0.20 95 1011.2
20260506003038 52 84 2.6 5.2 0.00 1.11 0.20 95 1011.3
20260506001536 52 88 1.7 3.5 0.01 1.11 0.20 95 1011.5
20260506000028 52 360 0.9 3.5 0.02 1.11 0.20 94 1011.7